Вернуться в каталог

ONEWEB-0164

АктивенСвязьPO
NORAD 48063·PAYLOAD·🇬🇧 United Kingdom

Запущен Mar 25, 2021 с Vostochny Cosmodrome

Loading…

Ближайшие Пролёты (ближайшие 24 часа)

TLE

СвежийSource: CelesTrak SupGP

Эпоха: Sep 14, 2026, 15:01 UTC

1 48063C 21025X   26257.62623102  .00000540  00000+0  14797-2 0  2570
2 48063  87.8916 302.4334 0001995  95.8517   5.4396 13.13466969    16

Отслеживайте ONEWEB-0164 в реальном времени с AllMySat

Download on the App Store